Location: Austin
(30.3000°N, 97.7500°W)
Time: 05:52:32
(UTC-06:00)

ATLAS 2AS CENTAUR R/B - Pass Details

Date: 03 March 2026
Orbit: 1050 x 1160 km, 63.7° (Epoch: 6 March)

Event Time Altitude Azimuth Distance (km) Brightness Sun altitude
Rises 20:26:56 0° 331° (NNW) 3,822 6.1 -25.7°
Reaches altitude 10° 20:29:33 10° 332° (NNW) 2,865 5.4 -26.2°
Maximum altitude 20:36:20 87° 61° (ENE) 1,060 2.5 -27.7°
Enters shadow 20:37:41 61° 148° (SSE) 1,189 2.6 -28.0°
